Flag for Brazil Weather past 2 weeks in Niterói, Rio de Janeiro, Brazil

Now
75 °F

Partly cloudy.


Feels Like: 75 °F
Forecast: 74 / 80 °F
Wind: No wind

Location: Rio De Janeiro Airport


UV Index: 5 (Moderate)

Visibility: N/A


Pressure: 29.98 "Hg

Humidity: 83%

Dew point: 70 °F

Location of NiteróiLocation

Historic Weather in Niterói

°F

Niterói temperature yesterday

Maximum temperature yesterday: 84 °F (at 12:00 PM)
Minimum temperature yesterday: 73 °F (at 6:00 AM)
Average temperature yesterday: 79 °F

Past Weeks' High & Low Weather Summary

 TemperatureHumidityPressure
High93 °F (Apr 12, 12:00 PM)100% (Apr 8, 6:00 AM)30.12 "Hg (Apr 8, 6:00 AM)
Low70 °F (Apr 14, 7:00 PM)39% (Apr 12, 12:00 PM)29.74 "Hg (Apr 9, 3:00 PM)
Average77 °F83%29.95 "Hg
* Reported Apr 5 11:00 PM — Apr 20 11:00 PM, Niterói, Weather by CustomWeather, © 2014

Note: Actual official high and low records may vary slightly from our data, if they occured in-between our weather recording intervals... More about our weather records

Advertising

Historic Weather Conditions — Data for Previous 24 hours

 ConditionsComfort  
Time TempWeatherWind HumidityBarometerVisibility
11:00 PM
Apr 20
75 °FPartly cloudy.No wind83%29.98 "HgN/A
10:00 PM79 °FPartly cloudy.8 mph74%29.98 "HgN/A
9:00 PM79 °FPartly cloudy.7 mph74%29.98 "HgN/A
8:00 PM79 °FPartly cloudy.3 mph74%29.95 "HgN/A
7:00 PM81 °FPartly cloudy.5 mph66%29.95 "HgN/A
6:00 PM81 °FPartly cloudy.10 mph66%29.95 "HgN/A
5:00 PM79 °FLow clouds.12 mph79%29.92 "Hg5 mi
4:00 PM81 °FPartly sunny.14 mph74%29.92 "Hg5 mi
3:00 PM82 °FPartly sunny.13 mph70%29.92 "Hg4 mi
2:00 PM82 °FPartly sunny.14 mph70%29.92 "HgN/A
1:00 PM84 °FScattered clouds.8 mph70%29.92 "Hg4 mi
12:00 PM84 °FPassing clouds.8 mph74%29.92 "Hg4 mi
11:00 AM81 °FFog.9 mph84%29.95 "Hg3 mi
10:00 AM79 °FFog.3 mph89%29.98 "Hg2 mi
9:00 AM77 °FFog.2 mph100%29.98 "Hg2 mi
8:00 AM73 °FFog.2 mph100%29.95 "Hg2 mi
7:00 AM75 °FFog.6 mph94%29.95 "Hg2 mi
6:00 AM73 °FFog.5 mph100%29.92 "Hg2 mi
Weather by CustomWeather, © 2014

See weather overview